Location: Unspecified
(35.6961°N, 0.0000°E)
Time: 18:51:30
(UTC+00:00)

Explorer 11/Cluster Stage 4 - Pass Details

Date: 22 May 2019
Orbit: 467 x 1260 km, 28.8° (Epoch: 17 June)

Event Time Altitude Azimuth Distance (km) Brightness Sun altitude
Rises 05:34:55 0° 253° (WSW) 2,779 8.7 7.5°
Reaches altitude 10° 05:37:33 10° 242° (WSW) 1,780 7.8 8.0°
Maximum altitude 05:41:02 29° 181° (S) 924 6.9 8.7°
Drops below altitude 10° 05:44:15 10° 119° (ESE) 1,622 9.0 9.3°
Sets 05:46:31 0° 108° (ESE) 2,482 10.1 9.7°
